Total_Precipitation_Accumulation
1.81 2.03 2.01 1.91 1.92 1.96 2.14 2.37 2.49 2.28 2.05 1.85 1.65 1.50 1.60 1.73 1.78 1.54 1.46 1.61 1.45 1.23 1.14 1.11 1.10 1.12 1.17 1.20 1.24 1.34 1.41 1.51 1.64 1.84 2.19 2.61 2.99 3.40
1.96 2.08 2.08 2.05 2.08 2.01 2.11 2.32 2.50 2.53 2.20 1.81 1.70 1.60 1.60 1.44 1.58 1.40 1.34 1.44 1.32 1.22 1.15 1.09 1.05 1.06 1.08 1.09 1.05 1.05 1.08 1.09 1.13 1.19 1.31 1.48 1.71 2.02
2.01 2.16 2.24 2.40 2.40 2.26 2.25 2.23 2.30 2.44 2.22 1.86 1.74 1.68 1.55 1.38 1.35 1.25 1.16 1.15 1.12 1.22 1.15 1.04 0.93 0.89 0.94 0.96 0.97 0.96 0.93 0.91 0.95 0.98 1.03 1.12 1.19 1.31
2.20 2.38 2.42 2.44 2.39 2.28 2.31 2.28 2.24 2.40 2.29 1.97 1.87 1.76 1.64 1.46 1.37 1.31 1.13 1.07 1.10 1.32 1.25 1.08 0.96 0.91 0.88 0.84 0.81 0.82 0.86 0.88 0.90 0.90 0.93 0.98 1.02 1.06
2.21 2.25 2.23 2.32 2.26 2.24 2.14 2.11 2.12 2.30 2.41 2.17 2.08 2.06 1.89 1.69 1.59 1.44 1.28 1.26 1.07 1.10 1.13 1.05 0.99 0.91 0.85 0.81 0.81 0.80 0.78 0.77 0.78 0.82 0.86 0.93 0.95 0.97
2.09 2.16 2.23 2.23 2.27 2.35 2.24 2.21 2.31 2.43 2.49 2.40 2.29 2.35 2.24 2.01 1.82 1.61 1.43 1.32 1.20 0.99 1.04 1.05 1.01 0.93 0.85 0.78 0.76 0.76 0.78 0.78 0.76 0.78 0.79 0.81 0.90 0.99
2.01 1.97 2.05 2.23 2.31 2.34 2.16 2.23 2.36 2.34 2.32 2.33 2.29 2.39 2.37 2.21 1.90 1.65 1.55 1.50 1.37 1.18 1.09 0.97 0.98 0.96 0.94 0.93 0.90 0.87 0.81 0.82 0.82 0.81 0.81 0.85 0.91 1.03
1.95 1.85 1.77 1.78 1.87 1.99 1.99 1.97 2.02 2.09 2.16 2.18 2.21 2.28 2.29 2.18 1.99 1.81 1.70 1.59 1.49 1.42 1.44 1.36 1.22 1.22 1.10 0.98 1.02 0.97 0.91 0.87 0.85 0.85 0.86 0.87 0.91 1.04
1.60 1.57 1.37 1.29 1.56 1.65 1.81 1.78 1.67 1.67 1.71 1.87 1.98 1.99 2.14 2.18 2.15 1.94 1.88 1.77 1.60 1.57 1.60 1.57 1.48 1.35 1.15 1.09 1.19 1.04 0.98 0.94 0.93 0.93 0.91 0.87 0.83 0.85
1.38 1.34 1.34 1.35 1.43 1.56 1.60 1.57 1.52 1.47 1.47 1.49 1.59 1.79 1.98 2.16 2.17 2.08 2.05 1.93 1.71 1.59 1.60 1.59 1.48 1.40 1.23 1.16 1.19 1.06 0.98 0.94 0.92 0.98 1.07 1.05 0.91 0.85
1.46 1.51 1.52 1.40 1.45 1.42 1.40 1.39 1.37 1.43 1.46 1.45 1.45 1.63 1.81 1.94 2.11 2.09 2.02 1.92 1.72 1.61 1.57 1.52 1.45 1.49 1.40 1.23 1.09 1.02 0.86 0.79 0.76 0.78 0.91 1.16 1.24 1.06
1.73 1.63 1.55 1.38 1.32 1.26 1.25 1.31 1.26 1.28 1.42 1.43 1.40 1.48 1.61 1.75 1.94 1.93 1.86 1.88 1.71 1.57 1.43 1.44 1.42 1.48 1.48 1.26 1.06 0.92 0.82 0.78 0.73 0.74 0.89 1.22 1.37 1.20
1.75 1.68 1.58 1.43 1.25 1.21 1.15 1.15 1.18 1.25 1.32 1.37 1.45 1.53 1.66 1.77 1.80 1.81 1.83 1.75 1.71 1.49 1.28 1.38 1.38 1.33 1.29 1.18 1.03 0.92 0.83 0.76 0.72 0.72 0.81 1.07 1.32 1.28
1.87 1.78 1.69 1.54 1.29 1.21 1.07 1.06 1.09 1.05 1.14 1.26 1.33 1.44 1.56 1.71 1.83 1.90 1.92 1.82 1.67 1.53 1.47 1.47 1.41 1.35 1.27 1.16 1.04 0.92 0.90 0.84 0.78 0.77 0.77 0.92 1.03 1.27
1.87 1.93 1.76 1.58 1.38 1.24 1.19 1.14 1.07 0.99 1.12 1.25 1.23 1.28 1.37 1.56 1.85 2.04 2.13 2.09 1.83 1.53 1.43 1.38 1.33 1.34 1.34 1.18 1.01 0.90 0.89 0.90 0.84 0.82 0.83 0.87 0.96 1.16
1.83 1.88 1.73 1.59 1.39 1.26 1.25 1.16 1.02 1.00 1.10 1.19 1.24 1.30 1.42 1.55 1.71 1.90 2.11 2.15 1.96 1.54 1.38 1.35 1.35 1.39 1.35 1.22 1.10 0.96 0.87 0.89 0.89 0.91 0.98 1.00 1.09 1.19
1.87 1.92 1.84 1.72 1.60 1.47 1.39 1.37 1.33 1.26 1.19 1.20 1.33 1.38 1.41 1.41 1.48 1.63 1.87 1.98 1.83 1.45 1.27 1.30 1.40 1.47 1.46 1.44 1.30 1.08 0.99 0.91 0.91 1.02 1.14 1.13 1.11 1.10
1.65 1.81 1.82 1.72 1.64 1.60 1.57 1.52 1.47 1.37 1.30 1.29 1.31 1.36 1.36 1.38 1.43 1.52 1.64 1.75 1.71 1.51 1.36 1.27 1.39 1.51 1.48 1.38 1.21 1.06 1.00 0.99 0.99 1.12 1.17 1.13 1.05 1.01
1.40 1.57 1.58 1.54 1.52 1.55 1.54 1.44 1.35 1.36 1.40 1.35 1.29 1.34 1.40 1.41 1.43 1.51 1.57 1.66 1.69 1.66 1.54 1.43 1.43 1.46 1.35 1.11 0.96 0.94 0.97 1.01 1.08 1.14 1.14 1.09 0.99 0.96
1.24 1.35 1.38 1.41 1.46 1.52 1.54 1.51 1.44 1.45 1.47 1.44 1.41 1.45 1.53 1.54 1.50 1.51 1.58 1.62 1.67 1.70 1.67 1.52 1.38 1.33 1.24 1.11 1.01 0.89 0.85 0.95 1.06 1.08 1.08 1.11 1.06 1.07
1.23 1.32 1.37 1.39 1.43 1.51 1.54 1.54 1.53 1.55 1.53 1.54 1.54 1.55 1.62 1.67 1.56 1.48 1.54 1.64 1.62 1.65 1.60 1.44 1.35 1.46 1.51 1.53 1.28 0.95 0.87 0.89 0.96 1.06 1.12 1.21 1.20 1.21
1.38 1.37 1.44 1.48 1.47 1.47 1.49 1.50 1.51 1.54 1.53 1.52 1.56 1.61 1.66 1.67 1.56 1.52 1.53 1.60 1.56 1.51 1.52 1.56 1.70 1.79 1.69 1.56 1.29 1.09 1.04 1.03 1.04 1.05 1.04 1.06 1.06 1.03
1.42 1.41 1.41 1.37 1.37 1.41 1.43 1.43 1.49 1.52 1.51 1.52 1.56 1.61 1.62 1.61 1.57 1.55 1.55 1.56 1.60 1.63 1.70 1.77 1.86 1.82 1.63 1.50 1.37 1.27 1.22 1.22 1.18 1.15 1.11 1.03 0.91 0.82